Retour au catalogue

STARLINK-3720

ActifCommunicationsVLEO
NORAD 52136·PAYLOAD·🇺🇸 United States

Lancé Mar 19, 2022 depuis Cape Canaveral Space Force Station

Loading…

Prochains Passages (prochaines 24 heures)

TLE

FraisSource: CelesTrak SupGP

Époque: Sep 14, 2026, 20:33 UTC

1 52136C 22029BA  26257.85673611 -.00013778  00000+0 -39424-3 0  2570
2 52136  53.1598 295.0806 0000945  85.9988 337.1440 15.35403137    10

Suivez STARLINK-3720 en temps réel avec AllMySat

Download on the App Store